Regional Weather Roundup
Issued by NWS

Home | Current Version | Previous Version | Text Only | Print | Product List | Glossary Off
Versions: 1 2 3 4 5 6 7 8 9 10 11 12 13 14 15 16 17 18 19 20 21 22 23 24 25 26 27 28 29 30 31 32 33 34 35 36 37 38 39 40 41 42 43 44 45 46 47 48 49 50

000
ASUS45 KABQ 292001
RWRNM
NEW MEXICO REGIONAL WEATHER ROUNDUP
NATIONAL WEATHER SERVICE ALBUQUERQUE NM
200 PM MDT SAT AUG 29 2015

NOTE: "FAIR" MEANS FEW OR NO CLOUDS BELOW 12,000 FEET AGL WITH NO
       SIGNIFICANT WEATHER OR OBSTRUCTIONS TO VISION.

      THIS PRODUCT IS RELEASED AS TWO VERSIONS.  ONE VERSION NEAR
      THE TOP OF THE HOUR CONTAINING PRELIMINARY DATA FROM ALBUQUERQUE
      AND OTHER STATIONS.  A FINAL VERSION WITH ADDITIONAL DATA IS
      ISSUED ABOUT 10 MINUTES AFTER THE HOUR.

NMZ501-503-504-510>518-292100-
NORTHWEST PLATEAU/NORTHCENTRAL MOUNTAINS

CITY           SKY/WX    TMP DP  RH WIND       PRES   REMARKS
FARMINGTON     SUNNY     88  44  21 E13       30.23F
SANTA FE       PTSUNNY   82  42  24 VRB6      30.31F
TAOS           PTSUNNY   82  39  21 E22       30.39S

$$
NMZ402-403-502-505>509-292100-
WESTCENTRAL MOUNTAINS/SOUTHWEST MOUNTAINS

CITY           SKY/WX    TMP DP  RH WIND       PRES   REMARKS
GALLUP         MOSUNNY   84  38  19 E5        30.29F
SILVER CITY      N/A     84  48  28 CALM      30.25F

$$
NMZ407-409-411-412-292100-
SOUTHERN DESERTS

CITY           SKY/WX    TMP DP  RH WIND       PRES   REMARKS
DEMING         SUNNY     90  51  26 MISG      30.16F
HOLLOMAN AFB   SUNNY     90  53  28 VRB1      30.12F
ALAMOGORDO     SUNNY     90  48  24 CALM      30.15F
T OR C         SUNNY     89  50  26 NE10      30.19F

$$
NMZ519>523-292100-
CENTRAL VALLEYS/CENTRAL HIGHLANDS

CITY           SKY/WX    TMP DP  RH WIND       PRES   REMARKS
ALBUQUERQUE    MOSUNNY   86  47  25 NW9       30.24F
DOUBLE EAGLE   MOSUNNY   88  46  23 S10G17    30.29
MORIARTY ARPT  FAIR      83  40  21 NE9       30.31F
CLINES CORNERS MOSUNNY   77  44  30 SE5       30.37F
BELEN          FAIR      88  42  20 E8        30.23F
SOCORRO        NOT AVBL

$$
NMZ524>526-539-540-292100-
SOUTHCENTRAL MOUNTAINS

CITY           SKY/WX    TMP DP  RH WIND       PRES   REMARKS
RUIDOSO        PTSUNNY   75  54  46 MISG      30.39F

$$
NMZ527>531-292100-
NORTHEAST HIGHLANDS/NORTHEAST PLAINS

CITY           SKY/WX    TMP DP  RH WIND       PRES   REMARKS
LAS VEGAS      PTSUNNY   82  42  24 VRB6      30.36F
RATON          MOSUNNY   83  39  21 VRB5      30.31F
CLAYTON        SUNNY     84  49  29 E6        30.26F

$$
NMZ532>537-292100-
EASTCENTRAL PLAINS

CITY           SKY/WX    TMP DP  RH WIND       PRES   REMARKS
TUCUMCARI      MOSUNNY   87  50  27 N12       30.16F
CANNON AFB     PTSUNNY   83  52  33 E6        30.18F
CLOVIS AIRPORT MOSUNNY   84  55  37 SE9       30.19F

$$
NMZ028-029-538-292100-
SOUTHEAST PLAINS

CITY           SKY/WX    TMP DP  RH WIND       PRES   REMARKS
ROSWELL        SUNNY     88  55  32 VRB6      30.15F
ARTESIA        SUNNY     86  54  32 NE7       30.16F
CARLSBAD       MOSUNNY   91  55  29 VRB6      30.13
HOBBS          PTSUNNY   81  59  47 SE5       30.19F


$$


USA.gov is the U.S. government's official web portal to all federal, state and local government web resources and services.